Location: Cabo di Oristano
(39.8500°N, 8.4333°E)
Time: 16:24:54
(UTC+00:00)

H-2A R/B - Pass Details

Date: 31 January 2023
Orbit: 732 x 836 km, 98.2° (Epoch: 31 March)

Event Time Altitude Azimuth Distance (km) Brightness Sun altitude
Rises 04:32:53 0° 19° (NNE) 3,395 5.5 -23.7°
Reaches altitude 10° 04:35:22 10° 25° (NNE) 2,457 4.9 -23.3°
Maximum altitude 04:40:36 46° 98° (E) 1,111 3.2 -22.3°
Drops below altitude 10° 04:45:45 10° 171° (S) 2,418 4.7 -21.3°
Sets 04:48:10 0° 178° (S) 3,336 5.4 -20.8°
